Search your local weather  

 

Hazardous Weather Conditions

No active alerts for HOUSTON, TEXAS

Current Conditions: HOUSTON, TEXAS

Overcast


58.0 F

Last Updated on Jan 26 2020, 5:53 am CST
Humidity: 93%
Wind Speed: N 0.0 mph
Barometer 29.95 in
Dewpoint: 55.9 F
Visibility: NULL mi
Precip: --
Heat Index: NA
Wind Chill: NA
Current conditions at:

Houston, Hooks Memorial Airport, TX (KDWH)

Lat: 30.0675 Lon: -95.55611

Local Radar Image active severe weather and emergency alerts image image weather storm and storm spotter reports image weather observation monitoring service image
Local
Radar
Active
Alerts
Storm Reports Weather
Monitoring

5 Day Forecast for HOUSTON, TEXAS (77002)

Sunday

Rain Likely
High 71 °F
Sunday
Night
Mostly Cloudy

Low 51 °F
Monday

Partly Cloudy

High 70 °F
Monday
Night
Isolated T-storm

Low 54 °F
Tuesday

Chance of T-storms

High 67 °F
Tuesday
Night
Partly Cloudy

Low 50 °F
Wednesday

Partly Cloudy

High 63 °F
Wednesday
Night
Slight Chance of Showers
Low 48 °F
Thursday

Chance of Rain
High 63 °F

Sign-up For Email & Text Message Weather Alert Notification Services



Advertise Here

Observation History for HOUSTON, TEXAS


Time Wind
(mph)
Vis
(mi)
Weather Precip (in) Temperature (F) Relative
Humidity
Wind
Chill
(F)
Heat
Index
(F)
Pressure
Air Dwpt altimeter
(in)
sea level
(mb)
5:53 am CST N 0.0 NULL Overcast -- 58.0 55.9 93% NA NA 29.95 1014.0
4:53 am CST N 0.0 NULL Overcast Trace 59.0 55.9 90% NA NA 29.95 1013.9
3:53 am CST SE 4.6 NULL Overcast 00.01 58.0 55.9 93% 58 NA 29.96 1014.4
2:53 am CST E 3.5 NULL Light Rain Trace 58.0 55.0 90% NA NA 29.98 1015.0
1:53 am CST E 4.6 NULL Overcast -- 58.0 54.0 87% 58 NA 29.99 1015.5
12:53 am CST E 5.8 NULL Overcast Trace 57.0 53.1 87% 56 NA 30.01 1015.9
11:53 pm CST E 6.9 NULL Overcast Trace 57.0 52.0 83% 56 NA 30.03 1016.6
10:53 pm CST SE 6.9 NULL Light Rain Trace 58.0 52.0 81% 57 NA 30.05 1017.4
9:53 pm CST E 5.8 NULL Overcast -- 60.0 50.0 70% 60 NA 30.05 1017.4
8:53 pm CST E 4.6 NULL Overcast -- 60.0 50.0 70% 60 NA 30.06 1017.7
7:53 pm CST E 5.8 10.00 Overcast -- 60.0 48.9 67% 60 NA 30.06 1017.8
6:53 pm CST SE 8.1 10.00 Overcast -- 60.0 48.0 65% 59 NA 30.06 1017.7
5:53 pm CST SE 6.9 NULL Overcast -- 61.0 48.0 63% 60 NA 30.06 1018.0
4:53 pm CST SE 9.2 G 19.6 10.00 Partly Cloudy -- 62.0 48.9 62% 61 NA 30.06 1018.0
3:53 pm CST SE 13.8 NULL Partly Cloudy -- 63.0 48.0 58% 61 NA 30.07 1018.0
2:53 pm CST SE 12.7 G 20.7 10.00 Mostly Cloudy -- 66.0 45.0 47% NA NA 30.08 1018.3
1:53 pm CST S 11.5 10.00 Mostly Cloudy -- 67.0 42.1 41% NA NA 30.10 1019.0
12:53 pm CST SE 12.7 G 18.4 10.00 Partly Cloudy -- 65.0 43.0 45% NA NA 30.12 1019.9
11:53 am CST SE 11.5 G 17.3 10.00 Overcast -- 64.0 39.9 41% NA NA 30.16 1021.1
10:53 am CST SE 10.4 10.00 Fair -- 62.0 39.9 44% 61 NA 30.18 1022.0
9:53 am CST SE 9.2 10.00 Fair -- 58.0 39.9 51% 56 NA 30.19 1022.3
8:53 am CST SE 8.1 10.00 Fair -- 51.0 42.1 71% 48 NA 30.19 1022.2
7:53 am CST N 0.0 9.00 Fair -- 42.0 39.9 92% NA NA 30.18 1021.8
6:53 am CST N 0.0 10.00 Fair -- 41.0 37.9 89% NA NA 30.17 1021.6

Regional Weather Observation

John Dunn Helistop, TX (KMCJ)

Mostly Cloudy
63.0 F

Houston, Houston Hobby Airport, TX (KHOU)

Light Rain Fog/Mist
62.0 F

Houston Southwest Airport, TX (KAXH)

NULL
62.0 F

Conroe, Montgomery County Airport, TX (KCXO)

Fog/Mist
57.0 F

Houston, Pearland Regional Airport, TX (KLVJ)

Overcast
64.0 F

Cleveland, TX (K6R3)

Light Drizzle
58.0 F

Advertise Here


Advertise Here